CYGFM07

Last updated on Tue Jan 14 2025 00:02:18 GMT+0000 (Coordinated Universal Time)

1 41890U 16078G 25013.44198322 .00016480 00000+0 45172-3 0 9998 2 41890 34.9515 23.5700 0008445 335.4123 24.6191 15.36378049448443
UTC large
Height (km)
Speed (km/s)
/
Latitude / Longitude
Inclination (degrees)
Orbital Period (minutes)
Azimuth
Elevation
Range (km)
Doppler Factor

Next 0 passes for location: London (51.5072 / 0.1276)

Sorry there are no passes over London.